User: anonymous   Login
Location: Springfield
(37.2150°N, 93.2980°W)
Time: 05:35:18
(UTC-06:00)
Language:

Cosmos 2366 rocket - Orbit

View from above orbital plane
View from above orbital plane
View from above satellite
View from above satellite

Ground track
Ground track

The orbit data is extracted from the following two-line orbital elements,

1 25893U 99045B   19022.92430906 +.00000043 +00000-0 +28965-4 0  9992
2 25893 082.9284 309.2311 0027272 259.1868 170.5389 13.76529736975115
Epoch (UTC): 22 January 2019 22:11:00
Eccentricity: 0.0027272
inclination: 82.9284°
perigee height: 956 km
apogee height: 996 km
right ascension of ascending node: 309.2311°
argument of perigee: 259.1868°
revolutions per day: 13.76529736
mean anomaly at epoch: 170.5389°
orbit number at epoch: 97511

The dashed part of the orbit path shows where the satellite is in the earth's shadow,  

DLR